FW0960 Weather Reports


time (UTC)temp
F
wind
direction
speed
knots
gust
knots
rain 1hr
in
rain 24hr
in
rain mn
in
humidity
%
barometer
mb
20260903001337 76 204 0.0 0.0 0.00 1.03 0.95 97 1017.8
20260903000333 76 204 0.0 0.0 0.00 1.03 0.95 97 1017.9
20260902235835 76 204 0.0 0.9 0.00 1.03 0.95 97 1017.8
20260902235332 76 204 0.0 0.9 0.00 1.03 0.95 97 1017.6
20260902234832 76 204 0.0 0.9 0.00 1.03 0.95 97 1017.6
20260902233831 76 204 0.0 0.0 0.00 1.03 0.95 97 1017.9
20260902233333 76 204 0.0 0.0 0.00 1.03 0.95 97 1018.1
20260902232330 76 204 0.0 0.0 0.00 1.03 0.95 97 1017.9
20260902231837 76 204 0.0 0.9 0.00 1.03 0.95 97 1017.8
20260902231333 76 204 0.0 0.9 0.00 1.03 0.95 97 1017.8
20260902224830 76 204 0.0 0.0 0.00 1.03 0.95 97 1017.9
20260902223834 76 204 0.0 0.0 0.00 1.03 0.95 96 1017.8
20260902223331 76 204 0.0 0.9 0.00 1.03 0.95 97 1017.8
20260902222822 76 204 0.0 0.9 0.00 1.03 0.95 96 1017.9
20260902222316 76 204 0.0 0.9 0.00 1.03 0.95 96 1018.1
20260902221311 76 204 0.0 0.9 0.00 1.03 0.95 96 1018.5
20260902220811 76 204 0.0 0.9 0.00 1.03 0.95 96 1018.5
20260902220308 76 204 0.0 0.9 0.00 1.03 0.95 96 1018.5
20260902215306 76 204 0.0 0.9 0.00 1.03 0.95 96 1018.4
20260902214807 76 204 0.0 0.9 0.00 1.03 0.95 96 1018.4
20260902213809 76 204 0.0 0.0 0.00 1.03 0.95 96 1018.3
20260902213305 76 204 0.0 0.9 0.00 1.03 0.95 96 1018.4
20260902212805 76 204 0.0 0.9 0.00 1.03 0.95 96 1018.5
20260902211804 76 204 0.0 0.9 0.00 1.03 0.95 97 1018.6
20260902210801 76 204 0.0 1.7 0.00 1.03 0.95 98 1017.8
20260902210305 76 204 0.9 1.7 0.00 1.03 0.95 97 1018.3
20260902205306 76 212 0.0 1.7 0.00 1.03 0.95 97 1017.4
20260902204806 75 211 0.0 1.7 0.00 1.03 0.95 97 1017.3
20260902204304 75 211 0.0 0.9 0.00 1.03 0.95 97 1016.7
20260902203804 76 211 0.0 0.9 0.00 1.03 0.95 97 1016.6
20260902203302 75 211 0.0 0.9 0.00 1.03 0.95 97 1016.7
20260902202805 75 211 0.0 0.9 0.00 1.03 0.95 97 1016.7
20260902202308 75 211 0.0 1.7 0.00 1.03 0.95 96 1016.6
20260902201302 76 206 0.9 1.7 0.00 1.03 0.95 95 1016.4
20260902200803 76 206 0.0 1.7 0.00 1.03 0.95 95 1016.8
20260902200304 76 205 0.0 1.7 0.00 1.03 0.95 94 1017.1
20260902195803 76 204 0.0 1.7 0.00 1.03 0.95 94 1017.4
20260902195306 76 204 0.0 2.6 0.00 1.03 0.95 94 1018.1
20260902193802 76 198 0.9 1.7 0.00 1.03 0.95 93 1019.5
20260902193307 76 198 0.9 1.7 0.00 1.03 0.95 93 1020.3
20260902191804 77 200 0.0 2.6 0.00 1.03 0.95 92 1020.2
20260902191305 77 5 0.0 1.7 0.00 1.03 0.95 91 1019.7
20260902190803 77 5 0.9 1.7 0.00 1.03 0.95 91 1019.3
20260902190306 77 5 0.9 1.7 0.00 1.03 0.95 91 1019.5
20260902185808 78 5 0.9 1.7 0.00 1.03 0.95 91 1020.0
20260902185301 78 5 0.9 1.7 0.00 1.03 0.95 91 1020.0
20260902184801 78 9 0.9 1.7 0.00 1.03 0.95 91 1019.8
20260902184307 78 9 0.0 1.7 0.00 1.03 0.95 91 1019.5
20260902183757 78 0 0.0 1.7 0.00 1.03 0.95 91 1019.6
20260902183257 78 0 0.0 1.7 0.00 1.03 0.95 92 1019.6
20260902181757 78 0 0.0 0.9 0.00 1.03 0.95 92 1020.0
20260902181251 78 0 0.0 1.7 0.00 1.03 0.95 92 1020.0
20260902180245 78 355 0.0 1.7 0.00 1.03 0.95 91 1020.0
20260902175249 78 355 0.0 1.7 0.00 1.03 0.95 91 1019.8
20260902174748 78 345 0.0 1.7 0.00 1.03 0.95 91 1020.1
20260902173749 78 344 0.0 1.7 0.00 1.03 0.95 91 1020.0
20260902173244 78 350 0.0 1.7 0.00 1.03 0.95 92 1019.8
20260902172741 78 350 0.0 1.7 0.00 1.03 0.95 92 1019.8
20260902172248 78 350 0.0 1.7 0.00 1.03 0.95 92 1019.7
20260902171745 77 350 0.0 1.7 0.00 1.03 0.95 92 1019.7
20260902171243 78 350 0.0 1.7 0.00 1.03 0.95 92 1019.8
20260902170753 78 355 0.0 1.7 0.00 1.03 0.95 93 1019.8
20260902170245 78 5 0.0 1.7 0.00 1.03 0.95 92 1019.6
20260902165751 78 0 0.0 1.7 0.00 1.03 0.95 91 1019.4
20260902165242 78 5 0.9 1.7 0.00 1.03 0.95 91 1019.3
20260902164747 78 5 0.9 1.7 0.00 1.03 0.95 92 1019.4
20260902164243 78 5 0.9 1.7 0.00 1.03 0.95 92 1019.5
20260902163744 78 5 0.9 1.7 0.00 1.03 0.95 92 1019.3
20260902163247 78 5 0.9 1.7 0.00 1.03 0.95 91 1019.3
20260902162243 79 5 0.0 1.7 0.00 1.03 0.95 91 1019.3
20260902161743 79 0 0.9 1.7 0.00 1.03 0.95 90 1019.4
20260902160243 78 0 0.9 1.7 0.00 1.03 0.95 90 1019.2
20260902155744 78 0 0.9 1.7 0.00 1.03 0.95 90 1019.3
20260902155244 78 0 0.9 1.7 0.00 1.03 0.95 92 1019.3
20260902154738 78 5 0.9 1.7 0.00 1.03 0.95 91 1019.4
20260902154243 78 346 0.9 1.7 0.00 1.03 0.95 93 1019.5
20260902153735 78 16 0.9 1.7 0.00 1.03 0.95 92 1019.4
20260902153237 78 9 0.9 1.7 0.00 1.03 0.95 92 1019.4
20260902152734 78 0 0.9 1.7 0.00 1.03 0.95 92 1019.4
20260902151731 78 9 0.9 1.7 0.00 1.03 0.95 92 1019.3
20260902151237 78 263 0.0 1.7 0.00 1.03 0.95 93 1019.6
20260902150734 78 257 0.0 1.7 0.00 1.03 0.95 94 1019.6
20260902150234 78 257 0.0 0.9 0.00 1.03 0.95 95 1019.6
20260902145731 78 257 0.0 1.7 0.00 1.03 0.95 95 1019.6
20260902145239 78 257 0.0 1.7 0.00 1.03 0.95 95 1019.7
20260902144231 77 247 0.0 1.7 0.00 1.03 0.95 95 1019.6
20260902143731 77 247 0.0 1.7 0.00 1.03 0.95 96 1019.8
20260902143230 77 247 0.0 0.9 0.00 1.03 0.95 95 1019.7
20260902142233 77 246 0.0 0.9 0.00 1.03 0.95 96 1019.6
20260902141728 77 246 0.0 1.7 0.00 1.03 0.95 96 1019.8
20260902141229 77 246 0.0 1.7 0.00 1.03 0.95 96 1019.7
20260902140727 77 204 0.0 1.7 0.00 1.03 0.95 96 1019.5
20260902140231 77 204 0.0 0.9 0.00 1.03 0.95 97 1019.4
20260902135729 76 205 0.0 0.9 0.00 1.03 0.95 97 1019.3
20260902135225 76 205 0.0 1.7 0.00 1.03 0.95 98 1019.3
20260902134725 76 205 0.0 1.7 0.00 1.03 0.95 98 1019.3
20260902134252 76 202 0.0 1.7 0.00 1.03 0.95 99 1019.1
20260902133222 76 200 0.0 0.0 0.00 1.03 0.95 99 1019.0
20260902132721 75 200 0.0 0.0 0.00 1.03 0.95 100 1018.9
20260902132217 75 200 0.0 0.0 0.00 1.03 0.95 100 1018.8
20260902130712 76 200 0.0 0.0 0.00 1.03 0.95 100 1018.8
20260902130212 75 200 0.0 0.0 0.00 1.03 0.95 100 1018.8
20260902125731 75 200 0.0 0.0 0.00 1.03 0.95 100 1018.7
20260902124709 75 200 0.0 0.0 0.00 1.03 0.95 100 1018.7
20260902123711 75 200 0.0 0.9 0.00 1.03 0.95 100 1018.8
20260902123203 75 200 0.0 1.7 0.00 1.03 0.95 100 1018.8
20260902121709 75 196 0.0 0.0 0.00 1.03 0.95 100 1018.7
20260902121205 75 196 0.0 0.0 0.00 1.03 0.95 100 1018.7
20260902120700 75 196 0.0 0.0 0.00 1.03 0.95 100 1018.8
20260902120204 75 196 0.0 0.0 0.00 1.03 0.95 100 1018.8
20260902115706 74 196 0.0 0.0 0.00 1.03 0.95 100 1018.6
20260902115206 74 196 0.0 0.0 0.00 1.03 0.95 100 1018.5
20260902114203 74 196 0.0 0.0 0.00 1.03 0.95 100 1018.6
20260902113703 74 196 0.0 0.0 0.00 1.03 0.95 100 1018.6
20260902113207 74 196 0.0 0.0 0.00 1.03 0.95 100 1018.6
20260902112210 74 196 0.0 0.9 0.00 1.03 0.95 100 1018.6
20260902111702 74 194 0.0 0.0 0.00 1.03 0.95 100 1018.5
20260902111204 74 194 0.0 0.9 0.00 1.03 0.95 100 1018.4
20260902110206 73 194 0.0 0.0 0.00 1.03 0.95 100 1018.4
20260902105707 73 194 0.0 0.0 0.00 1.03 0.95 100 1018.4
20260902105208 73 194 0.0 0.0 0.00 1.03 0.95 100 1018.2
20260902104705 73 194 0.0 0.0 0.00 1.03 0.95 100 1018.3
20260902104204 73 194 0.0 0.0 0.00 1.03 0.95 100 1018.1
20260902103702 72 194 0.0 0.0 0.00 1.03 0.95 100 1018.0
20260902103202 72 194 0.0 0.0 0.00 1.03 0.95 100 1017.9
20260902102703 72 194 0.0 0.0 0.00 1.03 0.95 100 1017.9
20260902102200 72 194 0.0 0.0 0.00 1.03 0.95 100 1017.8
20260902101705 73 194 0.0 0.0 0.00 1.03 0.95 100 1017.7
20260902101202 73 194 0.0 0.0 0.00 1.03 0.95 100 1017.7
20260902100701 73 194 0.0 0.0 0.00 1.03 0.95 100 1017.8
20260902100203 73 194 0.0 0.0 0.00 1.03 0.95 100 1017.7
20260902095709 73 194 0.0 0.0 0.00 1.03 0.95 100 1017.7
20260902095202 73 194 0.0 0.0 0.00 1.03 0.95 100 1017.6
20260902094734 73 194 0.0 0.0 0.00 1.03 0.95 100 1017.7
20260902093702 73 194 0.0 0.0 0.00 1.03 0.95 100 1017.7
20260902092709 73 194 0.0 1.7 0.00 1.03 0.95 100 1017.7
20260902091704 73 194 0.9 1.7 0.00 1.03 0.95 100 1017.4
20260902091206 73 194 0.9 1.7 0.00 1.03 0.95 100 1017.4
20260902090213 73 192 0.9 1.7 0.00 1.03 0.95 100 1017.2
20260902085705 73 194 0.0 1.7 0.00 1.03 0.95 100 1017.2
20260902085206 73 197 0.0 1.7 0.00 1.03 0.95 100 1017.1
20260902083704 73 198 0.9 1.7 0.00 1.03 0.95 100 1017.0
20260902082714 73 198 0.9 1.7 0.00 1.03 0.95 100 1016.9
20260902082209 73 197 0.0 1.7 0.00 1.03 0.95 100 1016.8
20260902081658 73 193 0.0 1.7 0.00 1.03 0.95 100 1016.7
20260902080653 73 193 0.0 2.6 0.00 1.03 0.95 100 1016.5
20260902080151 73 193 0.0 2.6 0.00 1.03 0.95 100 1016.6
20260902075652 73 193 0.0 1.7 0.00 1.03 0.95 100 1016.6
20260902075147 73 193 0.0 0.0 0.00 1.03 0.95 100 1016.4
20260902074648 73 193 0.0 0.0 0.00 1.03 0.95 100 1016.4
20260902074149 73 193 0.0 0.0 0.00 1.03 0.95 100 1016.3
20260902073645 73 193 0.0 0.0 0.00 1.03 0.95 100 1016.4
20260902073144 73 193 0.0 0.0 0.00 1.03 0.95 100 1016.3
20260902072645 73 193 0.0 0.0 0.00 1.03 0.95 100 1016.3
20260902072146 73 193 0.0 0.0 0.00 1.03 0.95 100 1016.3
20260902071640 73 193 0.0 0.0 0.00 1.03 0.95 100 1016.2
20260902071140 73 193 0.0 0.0 0.00 1.03 0.95 100 1016.3
20260902070137 73 193 0.0 0.0 0.00 1.03 0.95 99 1016.3
20260902065637 73 193 0.0 0.0 0.00 1.03 0.95 99 1016.5
20260902064632 73 193 0.0 0.0 0.00 1.03 0.95 99 1016.7
20260902064132 73 193 0.0 1.7 0.00 1.03 0.95 99 1016.7
20260902063633 73 193 0.0 1.7 0.00 1.03 0.95 99 1016.7
20260902063132 73 193 0.0 1.7 0.01 1.03 0.95 99 1016.7
20260902062629 73 193 0.0 0.0 0.01 1.03 0.95 99 1016.7
20260902061636 73 193 0.0 0.9 0.01 1.03 0.95 99 1016.7
20260902060632 73 193 0.0 0.0 0.03 1.03 0.95 99 1016.6
20260902060134 72 193 0.0 0.0 0.08 1.03 0.95 99 1016.6
20260902055132 72 193 0.0 0.0 0.59 1.03 0.95 99 1016.7
20260902054630 72 193 0.0 0.9 0.81 1.03 0.95 99 1016.6
20260902054132 72 193 0.0 0.9 0.94 1.03 0.95 99 1016.5
20260902053629 72 193 0.0 0.0 0.95 1.03 0.95 99 1016.5
20260902053131 72 193 0.0 0.0 0.94 1.02 0.94 98 1016.8
20260902052629 72 193 0.0 0.0 0.94 1.02 0.94 98 1016.9
20260902052136 72 193 0.0 0.9 0.94 1.02 0.94 98 1017.0
20260902051631 72 193 0.0 1.7 0.94 1.02 0.94 98 1017.1
20260902050630 72 194 0.9 1.7 0.92 1.00 0.92 97 1017.8
20260902045630 73 279 0.0 1.7 0.66 0.74 0.60 98 1018.8
20260902045130 73 209 0.0 1.7 0.37 0.44 0.34 98 1018.6
20260902044632 73 198 0.0 1.7 0.15 0.22 0.12 98 1018.6
20260902044132 73 200 0.0 1.7 0.03 0.09 0.01 97 1018.1
20260902043131 73 341 0.0 1.7 0.03 0.08 0.00 97 1016.9
20260902042631 73 341 0.0 2.6 0.06 0.08 0.00 97 1016.5
20260902042134 73 341 0.0 2.6 0.06 0.08 0.00 97 1016.9
20260902041632 73 335 0.0 1.7 0.08 0.08 0.00 97 1017.2
20260902040634 73 341 0.0 1.7 0.08 0.08 0.00 97 1016.8
20260902040130 73 355 0.0 1.7 0.08 0.08 0.00 97 1017.1
20260902035631 73 355 0.9 3.5 0.08 0.08 0.07 96 1017.1
20260902035146 73 355 0.9 3.5 0.07 0.07 0.07 96 1016.8
20260902034629 73 348 0.9 1.7 0.07 0.07 0.07 95 1017.1
20260902034135 74 302 0.9 1.7 0.06 0.06 0.06 95 1017.2
20260902033632 74 248 0.0 1.7 0.06 0.06 0.06 96 1017.0
20260902032630 75 236 0.0 1.7 0.02 0.02 0.02 95 1017.0
20260902032131 75 219 0.0 1.7 0.02 0.02 0.02 95 1017.6
20260902031640 75 209 0.9 1.7 0.00 0.00 0.00 94 1017.5
20260902031131 75 198 0.9 1.7 0.00 0.00 0.00 93 1017.5
20260902030626 76 218 0.9 3.5 0.00 0.00 0.00 93 1017.5
20260902030120 76 196 1.7 3.5 0.00 0.00 0.00 92 1017.3
20260902025618 77 177 1.7 7.8 0.00 0.00 0.00 89 1017.2
20260902025118 78 204 1.7 7.8 0.00 0.00 0.00 86 1016.9
20260902024619 80 211 0.9 4.3 0.00 0.00 0.00 83 1016.5
20260902024117 81 213 0.9 6.1 0.00 0.00 0.00 80 1016.6
20260902023615 82 192 0.9 6.1 0.00 0.00 0.00 81 1016.0
20260902022614 82 134 0.0 0.9 0.00 0.00 0.00 83 1015.2
20260902022111 82 134 0.0 0.9 0.00 0.00 0.00 83 1015.2
20260902021612 83 134 0.0 0.9 0.00 0.00 0.00 82 1015.2
20260902020609 83 132 0.0 1.7 0.00 0.00 0.00 83 1015.1
20260902020109 83 132 0.0 1.7 0.00 0.00 0.00 83 1015.2
20260902015116 83 135 0.0 0.9 0.00 0.00 0.00 84 1014.9
20260902014612 83 130 0.0 0.9 0.00 0.00 0.00 84 1014.6
20260902013104 83 130 0.0 0.9 0.00 0.00 0.00 85 1014.6
20260902012604 83 130 0.0 0.9 0.00 0.00 0.00 85 1014.6
20260902012104 83 130 0.0 0.9 0.00 0.00 0.00 85 1014.4
20260902011640 83 130 0.0 0.9 0.00 0.00 0.00 85 1014.6
20260902011103 83 130 0.0 0.9 0.00 0.00 0.00 85 1014.5
20260902010105 83 130 0.0 0.0 0.00 0.00 0.00 85 1014.5
20260902005603 83 130 0.0 0.0 0.00 0.00 0.00 85 1014.7
20260902005154 83 130 0.0 0.0 0.00 0.00 0.00 86 1014.7
20260902004107 84 130 0.0 0.0 0.00 0.00 0.00 84 1014.8
20260902003611 84 130 0.0 0.9 0.00 0.00 0.00 84 1014.6
20260902003104 84 130 0.0 0.9 0.00 0.00 0.00 83 1014.3
20260902002603 84 130 0.0 0.0 0.00 0.00 0.00 83 1014.0
20260902002106 84 130 0.0 0.0 0.00 0.00 0.00 82 1014.0